Location: Madrid
(40.4167°N, 3.7036°W)
Time: 02:32:07
(UTC+00:00)

ISS - Pass Details

Date: 10 May 2026
Orbit: 414 x 424 km, 51.6° (Epoch: 15 May)

Event Time Altitude Azimuth Distance (km) Brightness Sun altitude
Rises 22:03:24 0° 282° (WNW) 2,348 0.7 -24.6°
Reaches altitude 10° 22:06:07 10° 306° (NW) 1,488 -0.1 -24.9°
Maximum altitude 22:08:14 16° 346° (NNW) 1,195 -0.6 -25.1°
Drops below altitude 10° 22:10:21 10° 25° (NNE) 1,492 -0.6 -25.3°
Enters shadow 22:12:08 - 43° (NE) 2,031 -0.1 -25.5°
